ARIANE 2 DEB, 33579

Orbit data source: Space-Track

ARIANE 2 DEB, 33579 is space debris in HEO originally from a launch on Fri, 27 Jan 1989 UTC launched from the French Guiana (FRGUI). Debris objects in space refer to the collection of defunct objects orbiting the Earth. Examples of debris include non-operational satellites, rocket bodies, and fragments generated from explosions, collisions, or faulty payload assembly.

Loading next visibility...
Identifier
33579, 1989-006BX
Orbit
HEO
Country
Flag of FRFR
Related business
Manufacturer
EADS/LV
Mission
Spacecraft
Bus & Motor
Unknown
Mass
Unknown
Launch date (UTC)
1989-01-27 (37 years ago)
Launch vehicle
Unknown
Launch site
French Guiana (FRGUI)
Object type
Payload
Rocket body
Debris
Shape & HBR
Unknown shape, 0.2 m
Radar Cross Section
Medium (>0.1 m² and <1 m²)

Expand to show TLE details & history
Last TLE update: 10 hours ago

TLE from 10 hours ago
0 ARIANE 2 DEB
1 33579U 89006BX  26072.80850914  .00000756  00000-0  32806-1 0  9990
2 33579  10.6068 120.5937 7082565 296.8939  68.6112  2.24842289192968
Epoch: 2026-03-13T19:24Z
TLE epoch observation values (Epoch: 2026-03-13T19:24:15.189Z)
Latitude
10.53454°
Longitude
100.99918°
Altitude
23,440.326 km
Speed
3.246 km/s
True Right ascension
13h 34m 00s
True Declination
10° 31' 11"
Sunlit
Object was in daylight at epoch
Visualization orbit readout
Latitude
Unknown
Longitude
Unknown
Altitude
Unknown
Speed
Unknown
Apparent Right ascension
Unknown
Apparent Declination
Unknown
Sunlit
N/A
Visualization observer readout
Local Sidereal Time
09:48:36
Azimuth
Unknown
Elevation
Unknown
Doppler factor
Unknown
Orbital elements
Apogee altitude
35,674.03 km
Perigee altitude
803.716 km
Semi-major axis
24,617.01 km
Eccentricity
0.70826
Inclination
10.6068°
RAAN
120.5937°
Arg. of periapsis
296.8939°
True anomaly
146.19499°
Mean anomaly
68.6112°
Eccentric anomaly
107.34583°
Mean motion
0.56194 °/min
Orbital period
640.64 mins
BSTAR
0.032806
Loading maneuver chart data...
Computing Atmospheric mass density...
Loading historical data...
Loading historical data...
Loading historical data...
Loading historical data...
Loading historical data...
Loading historical data...
Loading historical data...

Documentation

Showing up to 5 results
|